Weather History for San Carlos, CA

Change the Weather History Date:

Monday, January 21, 2013

  Actual Average Record
Temperature  
Mean Temperature 48 °F -  
Max Temperature 60 °F 59 °F 70 °F (1976)
Min Temperature 37 °F 40 °F 28 °F (1966)
Degree Days  
Heating Degree Days 16    
Moisture  
Dew Point 35 °F    
Average Humidity 70    
Maximum Humidity 81    
Minimum Humidity 39    
Precipitation  
Precipitation 0.00 in - - ()
Sea Level Pressure  
Sea Level Pressure 30.14 in    
Wind  
Wind Speed 1 mph (East)    
Max Wind Speed 7 mph    
Max Gust Speed -    
Visibility 9 miles    
Events      
Averages and records for this station are not official NWS values.
T = Trace of Precipitation, MM = Missing Value Source: NWS Daily Summary

Daily Weather History Graph

Daily Weather History Graph

Search for Another Location

Airport:

Trip Planner

Search our weather history database for the weather conditions in past years. The results will help you decide how hot, cold, wet, or windy it might be!

Date:

Astronomy

Jan. 21, 2013 Rise Set
Actual Time 7:19 AM PST 5:21 PM PST
Civil Twilight 6:51 AM PST 5:49 PM PST
Nautical Twilight 6:19 AM PST 6:21 PM PST
Astronomical Twilight 5:48 AM PST 6:52 PM PST
Moon 1:05 PM PST (1/21) 2:52 AM PST (1/21)
Length of Visible Light 10h 57m
Length of Day
10h 01m
Waxing Gibbous, 76% of the Moon is Illuminated
Jan 21
Waxing Gibbous
Jan 26
Full
Feb 3
Last Quarter
Feb 9
New
Feb 17
First Quarter

Hourly Weather History & Observations

Time (PST) Temp. Windchill Dew Point Humidity Pressure Visibility Wind Dir Wind Speed Gust Speed Precip Events Conditions
12:15 AM 41.0 °F - 33.8 °F 76% 30.18 in 10.0 mi Calm Calm - N/A   Clear
12:35 AM 41.0 °F - 33.8 °F 76% 30.17 in 10.0 mi Calm Calm - N/A   Clear
12:55 AM 41.0 °F - 33.8 °F 76% 30.16 in 7.0 mi Calm Calm - N/A   Clear
1:15 AM 41.0 °F - 33.8 °F 76% 30.16 in 6.0 mi Calm Calm - N/A   Haze
1:35 AM 41.0 °F - 32.0 °F 70% 30.16 in 7.0 mi Calm Calm - N/A   Clear
1:55 AM 41.0 °F - 32.0 °F 70% 30.16 in 7.0 mi Calm Calm - N/A   Clear
2:15 AM 39.2 °F - 32.0 °F 75% 30.16 in 9.0 mi Calm Calm - N/A   Clear
2:55 AM 39.2 °F - 32.0 °F 75% 30.15 in 8.0 mi Calm Calm - N/A   Clear
3:15 AM 39.2 °F - 32.0 °F 75% 30.15 in 5.0 mi Calm Calm - N/A   Haze
3:35 AM 37.4 °F - 32.0 °F 81% 30.15 in 5.0 mi Calm Calm - N/A   Haze
3:55 AM 37.4 °F - 32.0 °F 81% 30.14 in 8.0 mi Calm Calm - N/A   Clear
4:15 AM 37.4 °F - 32.0 °F 81% 30.14 in 6.0 mi Calm Calm - N/A   Clear
4:35 AM 37.4 °F - 32.0 °F 81% 30.14 in 5.0 mi Calm Calm - N/A   Haze
4:55 AM 37.4 °F - 32.0 °F 81% 30.14 in 5.0 mi Calm Calm - N/A   Haze
5:15 AM 37.4 °F - 32.0 °F 81% 30.13 in 5.0 mi Calm Calm - N/A   Haze
5:35 AM 37.4 °F - 32.0 °F 81% 30.13 in 6.0 mi Calm Calm - N/A   Haze
5:55 AM 37.4 °F - 32.0 °F 81% 30.13 in 5.0 mi Calm Calm - N/A   Clear
6:15 AM 37.4 °F - 32.0 °F 81% 30.13 in 5.0 mi Calm Calm - N/A   Clear
6:35 AM 37.4 °F - 32.0 °F 81% 30.13 in 5.0 mi Calm Calm - N/A   Clear
6:53 AM 37.4 °F - 32.0 °F 81% 30.14 in 30.0 mi Calm Calm - N/A   Clear
6:55 AM 37.4 °F - 32.0 °F 81% 30.14 in 5.0 mi Calm Calm - N/A   Clear
7:56 AM 41.0 °F 39.0 °F 32.0 °F 70% 30.16 in 30.0 mi SSW 3.5 mph - N/A   Clear
8:49 AM 46.4 °F 45.2 °F 35.6 °F 66% 30.17 in 30.0 mi South 3.5 mph - N/A   Clear
9:52 AM 50.0 °F - 37.4 °F 62% 30.19 in 30.0 mi ESE 5.8 mph - N/A   Clear
10:51 AM 50.0 °F - 39.2 °F 66% 30.19 in 30.0 mi East 6.9 mph - N/A   Clear
11:49 AM 53.6 °F - 39.2 °F 58% 30.17 in 30.0 mi East 6.9 mph - N/A   Partly Cloudy
12:48 PM 57.2 °F - 37.4 °F 48% 30.15 in 30.0 mi East 4.6 mph - N/A   Partly Cloudy
1:55 PM 59.0 °F - 37.4 °F 45% 30.13 in 30.0 mi Calm Calm - N/A   Partly Cloudy
2:48 PM 60.8 °F - 35.6 °F 39% 30.12 in 30.0 mi Calm Calm - N/A   Partly Cloudy
3:49 PM 59.0 °F - 46.4 °F 63% 30.10 in 20.0 mi NNE 4.6 mph - N/A   Scattered Clouds
4:47 PM 57.2 °F - 41.0 °F 55% 30.10 in 20.0 mi North 3.5 mph - N/A   Scattered Clouds
5:49 PM 57.2 °F - 37.4 °F 48% 30.10 in 15.0 mi Calm Calm - N/A   Scattered Clouds
6:57 PM 53.6 °F - 39.2 °F 58% 30.11 in 15.0 mi Calm Calm - N/A   Clear
7:47 PM 50.0 °F - 39.2 °F 66% 30.11 in 15.0 mi Calm Calm - N/A   Clear
8:50 PM 48.2 °F - 39.2 °F 71% 30.12 in - Calm Calm - N/A   Clear
9:15 PM 48.2 °F - 37.4 °F 66% 30.13 in 10.0 mi Calm Calm - N/A   Clear
9:35 PM 48.2 °F - 37.4 °F 66% 30.13 in 10.0 mi Calm Calm - N/A   Clear
9:55 PM 48.2 °F - 37.4 °F 66% 30.14 in 10.0 mi Calm Calm - N/A   Clear
10:15 PM 46.4 °F - 37.4 °F 71% 30.14 in 10.0 mi Calm Calm - N/A   Clear
10:35 PM 46.4 °F - 37.4 °F 71% 30.14 in 10.0 mi Calm Calm - N/A   Clear
10:55 PM 46.4 °F - 37.4 °F 71% 30.14 in 10.0 mi Calm Calm - N/A   Clear
11:15 PM 46.4 °F - 37.4 °F 71% 30.13 in 10.0 mi Calm Calm - N/A   Clear
11:35 PM 44.6 °F - 37.4 °F 76% 30.12 in 10.0 mi Calm Calm - N/A   Clear
11:55 PM 44.6 °F - 37.4 °F 76% 30.12 in 10.0 mi Calm Calm - N/A   Clear